Weather History for Big Rapids, MI

Change the Weather History Date:

Sunday, February 10, 2013

  Actual Average Record
Temperature  
Mean Temperature 20 °F -  
Max Temperature 41 °F 30 °F 57 °F (2009)
Min Temperature 2 °F 9 °F -12 °F (1972)
Degree Days  
Heating Degree Days 44    
Moisture  
Dew Point 19 °F    
Average Humidity 85    
Maximum Humidity 96    
Minimum Humidity 72    
Precipitation  
Precipitation 0.00 in - - ()
Sea Level Pressure  
Sea Level Pressure 29.90 in    
Wind  
Wind Speed 3 mph (SE)    
Max Wind Speed 16 mph    
Max Gust Speed 24 mph    
Visibility 7 miles    
Events Rain , Snow    
Averages and records for this station are not official NWS values.
T = Trace of Precipitation, MM = Missing Value Source: NWS Daily Summary

Daily Weather History Graph

Daily Weather History Graph

Search for Another Location

Airport:

Trip Planner

Search our weather history database for the weather conditions in past years. The results will help you decide how hot, cold, wet, or windy it might be!

Date:

Astronomy

Feb. 10, 2013 Rise Set
Actual Time 7:47 AM EST 6:05 PM EST
Civil Twilight 7:17 AM EST 6:35 PM EST
Nautical Twilight 6:43 AM EST 7:09 PM EST
Astronomical Twilight 6:10 AM EST 7:42 PM EST
Moon 7:34 AM EST (2/10) 6:59 PM EST (2/10)
Length of Visible Light 11h 18m
Length of Day
10h 18m
New Moon, 0% of the Moon is Illuminated
Feb 10
New Moon
Feb 17
First Quarter
Feb 25
Full
Mar 4
Last Quarter
Mar 11
New

Hourly Weather History & Observations

Time (EST) Temp. Windchill Dew Point Humidity Pressure Visibility Wind Dir Wind Speed Gust Speed Precip Events Conditions
12:14 AM 12.7 °F - 9.5 °F 87% 30.17 in 10.0 mi Calm Calm - N/A   Scattered Clouds
12:34 AM 15.8 °F - 13.5 °F 90% 30.16 in 10.0 mi Calm Calm - N/A   Scattered Clouds
12:54 AM 11.1 °F - 7.0 °F 83% 30.15 in 10.0 mi Calm Calm - N/A   Scattered Clouds
1:14 AM 10.9 °F - 7.9 °F 87% 30.15 in 10.0 mi Calm Calm - N/A   Clear
1:34 AM 10.6 °F - 6.8 °F 85% 30.15 in 7.0 mi Calm Calm - N/A   Clear
1:54 AM 10.9 °F - 7.2 °F 85% 30.14 in 7.0 mi Calm Calm - N/A   Clear
2:14 AM 9.5 °F - 5.0 °F 82% 30.14 in 7.0 mi Calm Calm - N/A   Clear
2:34 AM 7.9 °F - 3.7 °F 83% 30.13 in 7.0 mi Calm Calm - N/A   Clear
2:54 AM 8.6 °F - 5.4 °F 87% 30.13 in 7.0 mi Calm Calm - N/A   Clear
3:14 AM 9.0 °F - 5.2 °F 85% 30.13 in 7.0 mi Calm Calm - N/A   Clear
3:34 AM 7.0 °F - 2.5 °F 82% 30.12 in 7.0 mi Calm Calm - N/A   Clear
3:54 AM 3.2 °F - -2.2 °F 78% 30.12 in 10.0 mi Calm Calm - N/A   Clear
4:14 AM 4.1 °F - 0.1 °F 84% 30.12 in 10.0 mi Calm Calm - N/A   Clear
4:35 AM 5.9 °F - 1.4 °F 82% 30.11 in 10.0 mi Calm Calm - N/A   Scattered Clouds
4:54 AM 4.1 °F - -1.3 °F 78% 30.12 in 10.0 mi Calm Calm - N/A   Scattered Clouds
5:14 AM 2.7 °F - -2.6 °F 79% 30.11 in 10.0 mi Calm Calm - N/A   Clear
5:34 AM 3.6 °F - -1.1 °F 81% 30.11 in 10.0 mi Calm Calm - N/A   Clear
5:54 AM 2.3 °F - -2.7 °F 79% 30.11 in 7.0 mi Calm Calm - N/A   Clear
6:14 AM 5.2 °F - 0.9 °F 82% 30.11 in 10.0 mi Calm Calm - N/A   Clear
6:34 AM 3.9 °F - -1.7 °F 78% 30.10 in 10.0 mi Calm Calm - N/A   Clear
6:54 AM 7.7 °F - 3.4 °F 83% 30.10 in 7.0 mi Calm Calm - N/A   Clear
7:14 AM 3.2 °F - -1.8 °F 80% 30.10 in 7.0 mi Calm Calm - N/A   Clear
7:34 AM 5.0 °F - 0.1 °F 80% 30.09 in 10.0 mi Calm Calm - N/A   Scattered Clouds
7:54 AM 5.0 °F - -0.0 °F 80% 30.09 in 10.0 mi Calm Calm - N/A   Scattered Clouds
8:14 AM 7.0 °F - 2.5 °F 82% 30.08 in 10.0 mi Calm Calm - N/A   Scattered Clouds
8:34 AM 9.9 °F - 5.7 °F 83% 30.07 in 5.0 mi Calm Calm - N/A   Mostly Cloudy
8:54 AM 14.2 °F - 11.1 °F 88% 30.06 in 5.0 mi Calm Calm - N/A   Overcast
9:14 AM 17.6 °F - 15.6 °F 92% 30.04 in 7.0 mi Calm Calm - N/A   Overcast
9:34 AM 20.1 °F 13.6 °F 18.3 °F 93% 30.01 in 7.0 mi ENE 4.6 mph - N/A   Scattered Clouds
9:54 AM 21.4 °F 16.6 °F 19.8 °F 93% 30.00 in 7.0 mi East 3.5 mph - N/A   Clear
10:14 AM 23.0 °F 18.4 °F 21.0 °F 92% 29.99 in 10.0 mi East 3.5 mph - N/A   Clear
10:34 AM 24.8 °F 16.9 °F 19.9 °F 82% 29.99 in 10.0 mi SSE 6.9 mph - N/A   Clear
10:54 AM 25.7 °F 21.5 °F 18.0 °F 73% 30.01 in 10.0 mi SE 3.5 mph - N/A   Scattered Clouds
11:14 AM 26.8 °F 22.8 °F 19.4 °F 74% 30.00 in 5.0 mi SE 3.5 mph - N/A   Haze
11:34 AM 28.0 °F 20.0 °F 19.9 °F 72% 30.01 in 7.0 mi SE 8.1 mph - N/A   Overcast
11:54 AM 27.5 °F 22.2 °F 22.8 °F 83% 29.98 in 1.2 mi ESE 4.6 mph - N/A   Overcast
12:14 PM 27.3 °F 19.1 °F 25.0 °F 91% 29.97 in 2.5 mi SE 8.1 mph - N/A   Overcast
12:34 PM 28.2 °F 20.2 °F 24.3 °F 85% 29.96 in 5.0 mi SE 8.1 mph - N/A   Overcast
1:14 PM 29.3 °F 22.3 °F 23.5 °F 79% 29.90 in 4.0 mi ESE 6.9 mph - N/A   Haze
1:34 PM 29.8 °F 24.9 °F 23.7 °F 78% 29.89 in 10.0 mi SE 4.6 mph - N/A   Overcast
1:54 PM 30.4 °F 24.5 °F 23.9 °F 77% 29.88 in 10.0 mi SE 5.8 mph - N/A   Overcast
2:14 PM 30.6 °F 23.1 °F 23.5 °F 75% 29.86 in 10.0 mi ESE 8.1 mph - N/A   Overcast
2:34 PM 30.9 °F 23.5 °F 23.9 °F 75% 29.84 in 5.0 mi SE 8.1 mph - N/A   Haze
2:54 PM 31.1 °F 23.7 °F 24.3 °F 76% 29.83 in 7.0 mi SE 8.1 mph - N/A Snow Light Snow
3:14 PM 31.8 °F 25.4 °F 25.5 °F 78% 29.82 in 4.0 mi SE 6.9 mph - N/A Snow Light Snow
3:34 PM 31.8 °F 24.6 °F 26.2 °F 80% 29.80 in 4.0 mi SE 8.1 mph - N/A   Overcast
3:54 PM 32.0 °F 24.8 °F 27.0 °F 82% 29.79 in 4.0 mi ESE 8.1 mph - N/A Snow Light Snow
4:14 PM 32.0 °F 25.6 °F 27.5 °F 83% 29.77 in 5.0 mi SE 6.9 mph - N/A   Overcast
4:34 PM 32.4 °F 24.6 °F 28.4 °F 85% 29.75 in 4.0 mi SE 9.2 mph 17.3 mph N/A Snow Light Snow
4:55 PM 32.9 °F 24.1 °F 29.8 °F 88% 29.73 in 5.0 mi SE 11.5 mph 24.2 mph N/A Snow Light Snow
5:14 PM 33.6 °F 26.2 °F 30.0 °F 87% 29.72 in 5.0 mi SE 9.2 mph 17.3 mph N/A Snow Light Snow
5:34 PM 33.8 °F 26.4 °F 30.0 °F 86% 29.71 in 3.0 mi SE 9.2 mph - N/A Snow Light Snow
5:54 PM 34.0 °F 26.6 °F 31.5 °F 90% 29.69 in 5.0 mi ESE 9.2 mph - N/A Snow Light Snow
6:14 PM 34.7 °F 28.1 °F 31.6 °F 89% 29.68 in 5.0 mi SE 8.1 mph - N/A Snow Light Snow
6:34 PM 35.1 °F 26.9 °F 31.5 °F 87% 29.67 in 5.0 mi SE 11.5 mph 17.3 mph N/A Snow Light Snow
6:54 PM 35.1 °F 26.9 °F 31.5 °F 87% 29.67 in 4.0 mi SE 11.5 mph 17.3 mph N/A   Overcast
7:14 PM 35.6 °F 27.5 °F 31.1 °F 84% 29.66 in 4.0 mi SSE 11.5 mph 18.4 mph N/A   Overcast
7:34 PM 35.1 °F 28.6 °F 33.1 °F 92% 29.64 in 2.0 mi SE 8.1 mph 16.1 mph N/A Snow Light Snow
7:54 PM 36.0 °F 28.5 °F 34.3 °F 94% 29.63 in 3.0 mi SSE 10.4 mph 18.4 mph N/A Snow Light Snow
8:14 PM 36.5 °F 27.8 °F 34.7 °F 93% 29.63 in 3.0 mi SSE 13.8 mph 20.7 mph N/A Snow Light Snow
8:34 PM 36.7 °F 27.6 °F 35.1 °F 94% 29.61 in 3.0 mi SSE 15.0 mph 20.7 mph N/A   Overcast
8:54 PM 36.9 °F 27.5 °F 35.2 °F 94% 29.60 in 3.0 mi SSE 16.1 mph 21.9 mph N/A Snow Light Snow
9:14 PM 37.0 °F 28.9 °F 35.6 °F 95% 29.59 in 2.5 mi SSE 12.7 mph 19.6 mph N/A Rain Light Rain
9:34 PM 37.4 °F 30.8 °F 36.0 °F 95% 29.59 in 4.0 mi South 9.2 mph - N/A Snow Light Snow
9:54 PM 37.4 °F 29.8 °F 36.0 °F 95% 29.58 in 5.0 mi SSE 11.5 mph - N/A Snow Light Snow
10:14 PM 37.6 °F 31.0 °F 36.5 °F 96% 29.57 in 7.0 mi South 9.2 mph 17.3 mph N/A   Light Drizzle
10:34 PM 37.9 °F 31.5 °F 36.7 °F 95% 29.56 in 7.0 mi South 9.2 mph 16.1 mph N/A   Overcast
10:54 PM 38.3 °F 30.9 °F 36.9 °F 95% 29.55 in 7.0 mi South 11.5 mph - N/A   Overcast
11:14 PM 38.5 °F 30.7 °F 37.4 °F 96% 29.53 in 5.0 mi SSE 12.7 mph 17.3 mph N/A   Overcast
11:35 PM 39.6 °F 33.0 °F 38.5 °F 96% 29.51 in 5.0 mi SSE 10.4 mph 19.6 mph N/A   Overcast
11:54 PM 39.7 °F 32.7 °F 38.7 °F 96% 29.51 in 5.0 mi South 11.5 mph 17.3 mph N/A   Overcast